Overview Statistics Trail Chart Weather Telemetry Raw packets
 

This is the latest recevied weather packets stored in our database for station/object KR0L-13. If no packets are shown the sender has not sent any weather packets the latest 10 day(s).

<< 1 2 3 4 5 >>
Time Temp. Humidity Pressure Rain* Wind** Luminosity Snow
1788651320 36.11° C 35% 1012.2 hPa 0 mm - - -
1788650720 36.11° C 34% 1012.2 hPa 0 mm - - -
1788650120 36.67° C 35% 1012.2 hPa 0 mm - - -
1788649520 36.67° C 34% 1012.1 hPa 0 mm - - -
1788648920 37.22° C 33% 1012.3 hPa 0 mm - - -
1788648320 37.22° C 32% 1012.3 hPa 0 mm - - -
1788647721 37.22° C 32% 1012.4 hPa 0 mm - - -
1788647120 37.78° C 31% 1012.2 hPa 0 mm - - -
1788646520 38.89° C 30% 1012.2 hPa 0 mm - - -
1788645920 38.89° C 31% 1012.3 hPa 0 mm - - -
1788645320 38.89° C 30% 1012.2 hPa 0 mm - - -
1788644720 38.33° C 32% 1012.2 hPa 0 mm - - -
1788644120 38.33° C 31% 1012.3 hPa 0 mm - - -
1788643520 38.89° C 31% 1012.4 hPa 0 mm - - -
1788642953 38.33° C 32% 1012.3 hPa 0 mm - - -
1788642320 38.33° C 34% 1012.3 hPa 0 mm - - -
1788641722 38.33° C 34% 1012.4 hPa 0 mm - - -
1788641122 38.33° C 34% 1012.7 hPa 0 mm - - -
1788640522 38.33° C 33% 1012.8 hPa 0 mm - - -
1788639922 37.78° C 33% 1012.9 hPa 0 mm - - -
1788639322 37.78° C 33% 1013.1 hPa 0 mm - - -
1788638722 38.33° C 34% 1013.3 hPa 0 mm - - -
1788638122 37.78° C 36% 1013.6 hPa 0 mm - - -
1788637522 38.33° C 35% 1013.7 hPa 0 mm - - -
1788636922 38.33° C 35% 1013.7 hPa 0 mm - - -

* Rain latest hour (hover to see other rain measurements)
** Current wind speed in m/s (hover to see current wind gust speed)